Location: Kaiser
(34.0939°N, 117.4889°W)
Time: 03:45:19
(UTC+00:00)

Cosmos 1315 Rocket - Pass Details

Date: 29 October 2020
Orbit: 530 x 567 km, 81.2° (Epoch: 26 November)

Event Time Altitude Azimuth Distance (km) Brightness Sun altitude
Rises 13:19:00 0° 353° (N) 2,764 6.2 -10.6°
Reaches altitude 10° 13:21:11 10° 355° (N) 1,867 5.4 -10.2°
Maximum altitude 13:25:18 75° 81° (E) 589 3.1 -9.3°
Drops below altitude 10° 13:29:25 10° 168° (SSE) 1,857 5.8 -8.5°
Sets 13:31:35 0° 170° (S) 2,748 6.7 -8.1°
